#timestamp,LO_Frequency,Hit,StdDev 
1635285615.2,286047000.2,N
1635285635.1,286047000.1,N
1635285636.0,286047000.1,N
1635285655.8,286046998.2,N
1635285675.6,286047001.1,N
1635285695.5,286046998.3,N
1635285715.3,286046998.6,N
1635285735.2,286046998.3,N
1635285755.9,286046998.3,N
1635285775.7,286047000.8,N
1635285795.6,286046998.1,N
1635285815.4,286046999.3,N
1635285835.3,286046998.5,N
1635285855.1,286046998.6,N
1635285856.0,286046998.6,N
1635285875.8,286046999.0,N
1635285895.7,286046998.9,N
1635285915.5,286046999.6,N
1635285935.3,286046999.0,N
1635285955.2,286046999.0,N
1635285975.0,286046999.3,N
1635285975.9,286046999.3,N
1635285995.8,286046999.1,N
1635286015.6,286046998.9,N
1635286035.4,286046998.9,N
1635286055.3,286046997.0,Y
1635286075.1,286046998.8,P
1635286095.9,286047001.1,P
1635286115.7,286047000.7,N
1635286135.5,286047001.0,N
1635286155.4,286047000.4,N
1635286175.2,286047000.0,N
1635286195.0,286047000.2,N
1635286195.9,286047000.2,N
1635286215.8,286047000.2,N
1635286235.6,286047000.9,N
1635286255.5,286047000.5,N
1635286275.3,286047002.8,Y
1635286295.1,286046999.7,P
1635286315.2,286047000.4,N
1635286335.1,286046998.2,P
1635286336.0,286046998.2,N
1635286355.8,286047000.8,N
1635286375.6,286046998.2,N
1635286395.5,286047000.7,N
1635286415.3,286047001.0,N
1635286435.2,286047000.4,N
1635286455.9,286047000.5,N
1635286475.7,286047000.3,N
1635286495.6,286047000.1,N
1635286515.4,286047002.4,N
1635286535.2,286046998.5,N
1635286555.1,286047001.1,N
1635286556.0,286047001.1,N
1635286575.8,286046998.4,N
1635286595.6,286046998.3,N
1635286615.5,286046998.7,N
1635286635.3,286046998.8,N
1635286655.2,286047001.0,N
1635286675.9,286047001.0,N
1635286695.7,286046999.8,N
1635286715.6,286047002.4,N
1635286735.4,286047002.4,N
1635286755.2,286047002.5,N
1635286775.1,286047002.8,N
1635286776.0,286047002.8,N
1635286795.8,286047002.4,N
1635286815.7,286047000.0,N
1635286835.5,286047000.4,N
1635286855.3,286047000.5,N
1635286875.2,286047002.4,N
1635286895.0,286047001.6,N
1635286895.9,286047001.6,N
1635286915.8,286047001.9,N
1635286935.6,286047002.2,N
1635286955.4,286047002.3,N
1635286975.3,286047002.6,N
1635286995.1,286047002.6,N
1635286996.0,286047002.6,N
1635287015.8,286047001.5,N
1635287035.7,286046999.7,N
1635287055.5,286046999.7,N
1635287075.3,286047002.4,N
1635287095.2,286047002.4,N
1635287115.0,286047001.5,N
1635287115.9,286047001.5,N
1635287135.8,286047002.7,N
1635287155.6,286047002.7,N
1635287175.4,286047002.8,N
1635287195.3,286047002.4,N
1635287215.1,286047000.9,N
1635287235.8,286046998.1,N
1635287255.7,286046998.2,N
1635287275.5,286047000.9,N
1635287295.4,286046998.6,N
1635287315.2,286046998.4,N
1635287335.0,286046998.6,N
1635287335.9,286046998.6,N
1635287355.8,286046999.4,N
1635287375.6,286046999.3,N
1635287395.4,286046999.3,N
1635287415.3,286046998.3,N
1635287435.1,286047001.1,N
1635287455.9,286047001.2,N
1635287475.7,286047000.3,N
1635287495.5,286047002.8,N
1635287515.4,286047002.6,N
1635287535.2,286047002.1,N
1635287555.0,286047002.0,N
1635287556.0,286047002.0,N
1635287575.8,286047002.5,N
1635287595.6,286047002.6,N
1635287615.5,286047000.0,N
1635287635.3,286047002.4,N
1635287655.1,286047002.5,N
1635287675.9,286047002.7,N
1635287695.7,286047002.0,N
1635287715.6,286047001.6,N
1635287735.4,286047001.7,N
1635287755.2,286047001.4,N
1635287775.1,286047001.4,N
1635287776.0,286047001.4,N
1635287795.8,286047002.1,N
1635287815.6,286047002.0,N
1635287835.5,286047004.3,N
1635287855.3,286047003.6,N
1635287875.1,286047003.5,N
1635287895.9,286047003.5,N
1635287915.7,286047004.1,N
1635287935.6,286047003.7,N
1635287955.4,286047003.8,N
1635287975.3,286047002.9,N
1635287995.1,286047003.3,Y
1635287996.0,286047003.3,P
1635288015.8,286047002.2,P
1635288035.7,286047002.5,P
1635288055.5,286047001.6,Y
1635288075.4,286046998.8,P
1635288095.2,286046998.6,N
1635288115.0,286047000.7,N
1635288115.9,286047000.7,N
1635288135.8,286047000.7,N
1635288155.6,286047000.4,N
1635288175.5,286047000.9,N
1635288195.3,286047000.7,N
1635288215.1,286047002.1,N
1635288235.9,286047002.5,N
1635288255.7,286047002.4,N
1635288275.6,286047000.9,N
1635288295.4,286047001.0,N
1635288315.2,286046998.1,N
1635288335.1,286047000.1,N
1635288336.0,286047000.1,N
1635288355.8,286046998.6,N
1635288375.7,286047000.3,N
1635288395.5,286047001.0,N
1635288415.3,286047000.7,N
1635288435.2,286046998.8,N
1635288455.0,286047001.2,N
1635288455.9,286047001.2,N
1635288475.8,286046998.6,N
1635288495.6,286046998.2,N
1635288515.4,286047001.2,N
1635288535.3,286047000.7,N
1635288555.1,286047000.8,N
1635288575.8,286046998.5,N
1635288595.7,286046998.5,N
1635288615.5,286047000.7,N
1635288635.4,286046998.2,N
1635288655.2,286046998.8,N
1635288675.0,286046998.4,N
1635288675.9,286046998.4,N
1635288695.8,286046998.9,N
1635288715.6,286046999.4,N
1635288735.4,286046996.6,N
1635288755.3,286046999.5,N
1635288775.1,286046999.4,N
1635288795.9,286046999.2,N
1635288815.7,286046998.3,N
1635288835.5,286046997.0,N
1635288855.4,286046999.0,N
1635288875.2,286046998.5,N
1635288895.0,286047000.5,N
1635288896.0,286047000.5,N
1635288915.8,286047002.7,N
1635288935.6,286046999.8,N
1635288955.5,286046999.8,N
1635288975.3,286047000.1,N
1635288995.2,286047000.3,N
1635289015.9,286047000.4,N
1635289035.7,286046998.2,N
1635289055.6,286047001.1,N
1635289075.4,286047000.6,N
1635289095.2,286046998.8,N
1635289115.1,286047000.7,N
1635289116.0,286047000.7,N
1635289135.8,286046998.4,N
1635289155.7,286046998.4,N
1635289175.5,286046998.7,N
1635289195.3,286046998.1,N
